SWR1KA LKPR-LSZH

Flight info

Callsign SWR1KA
Flight time 1h 1m
Altitude 34000
Route BALTU DCT DONAD DCT OKG L984 KULOK Z715 ANELA N869 TEDGO/N0461F350 T724 RILAX
Aircraft A343/H-SDE2E3FGHIJ4J5M1RWXY/LB1D1

Departure

Time 2026-05-05 17:03
Airport Václav Havel Airport Prague (LKPR)

Arrival

Time 2026-05-05 18:04
Airport Zürich Airport (LSZH)
Time Latitude Longitude Altitude Speed Heading
2026-05-05 16:29 50.10614 14.25953 1174 ft 0 kts 175°
2026-05-05 16:30 50.10616 14.25953 1175 ft 0 kts 175°
2026-05-05 16:55 50.10610 14.25954 1178 ft 3 kts 173°
2026-05-05 16:55 50.10569 14.25969 1176 ft 8 kts 164°
2026-05-05 16:55 50.10535 14.25963 1175 ft 3 kts 212°
2026-05-05 16:56 50.10529 14.25945 1174 ft 2 kts 242°
2026-05-05 16:56 50.10533 14.25905 1175 ft 6 kts 289°
2026-05-05 16:56 50.10558 14.25846 1175 ft 7 kts 304°
2026-05-05 16:56 50.10589 14.25773 1175 ft 8 kts 301°
2026-05-05 16:57 50.10614 14.25705 1174 ft 3 kts 298°
2026-05-05 16:57 50.10616 14.25698 1174 ft 0 kts 298°
2026-05-05 16:58 50.10623 14.25679 1176 ft 7 kts 299°
2026-05-05 16:59 50.10668 14.25555 1172 ft 19 kts 299°
2026-05-05 16:59 50.10746 14.25339 1162 ft 26 kts 298°
2026-05-05 16:59 50.10810 14.25108 1160 ft 22 kts 281°
2026-05-05 16:59 50.10818 14.24860 1158 ft 24 kts 267°
2026-05-05 17:00 50.10796 14.24675 1162 ft 12 kts 246°
2026-05-05 17:00 50.10773 14.24617 1163 ft 2 kts 213°
2026-05-05 17:00 50.10756 14.24626 1162 ft 2 kts 140°
2026-05-05 17:00 50.10751 14.24639 1161 ft 0 kts 125°
2026-05-05 17:02 50.10741 14.24661 1163 ft 11 kts 126°
2026-05-05 17:02 50.10564 14.25028 1166 ft 75 kts 127°
2026-05-05 17:02 50.10139 14.25906 1193 ft 127 kts 127°
2026-05-05 17:03 50.09529 14.27166 1381 ft 156 kts 126°
2026-05-05 17:03 50.08853 14.28538 1885 ft 164 kts 125°
2026-05-05 17:03 50.08140 14.29983 2413 ft 176 kts 122°
2026-05-05 17:03 50.07343 14.31641 2667 ft 211 kts 126°
2026-05-05 17:04 50.06381 14.33613 3060 ft 244 kts 126°
2026-05-05 17:04 50.05328 14.35766 3864 ft 254 kts 127°
2026-05-05 17:04 50.04257 14.37955 4948 ft 254 kts 127°
2026-05-05 17:04 50.03181 14.40158 5990 ft 258 kts 128°
2026-05-05 17:05 50.02083 14.42407 6909 ft 264 kts 129°
2026-05-05 17:05 50.01068 14.44823 7813 ft 272 kts 118°
2026-05-05 17:05 50.00558 14.47680 8703 ft 281 kts 97°
2026-05-05 17:05 50.00804 14.50727 9554 ft 292 kts 73°
2026-05-05 17:06 50.01854 14.53493 10194 ft 309 kts 50°
2026-05-05 17:06 50.03541 14.55757 10517 ft 332 kts 38°
2026-05-05 17:06 50.05477 14.57921 10828 ft 352 kts 37°
2026-05-05 17:06 50.07484 14.60157 11358 ft 364 kts 37°
2026-05-05 17:07 50.09611 14.62381 12015 ft 372 kts 30°
2026-05-05 17:07 50.12017 14.63915 12763 ft 377 kts 18°
2026-05-05 17:07 50.14589 14.64815 13510 ft 382 kts
2026-05-05 17:07 50.17243 14.64595 14173 ft 384 kts 345°
2026-05-05 17:08 50.19679 14.62943 14877 ft 383 kts 324°
2026-05-05 17:08 50.21575 14.60066 15594 ft 382 kts 303°
2026-05-05 17:08 50.22694 14.56328 16303 ft 379 kts 282°
2026-05-05 17:08 50.22946 14.52253 17055 ft 378 kts 265°
2026-05-05 17:09 50.22354 14.48273 17792 ft 378 kts 246°
2026-05-05 17:09 50.21163 14.44603 18490 ft 380 kts 239°
2026-05-05 17:09 50.19974 14.40902 19133 ft 384 kts 248°
2026-05-05 17:09 50.19269 14.36858 19758 ft 389 kts 258°
2026-05-05 17:10 50.18852 14.32660 20387 ft 393 kts 261°
2026-05-05 17:10 50.18575 14.28446 20992 ft 397 kts 263°
2026-05-05 17:10 50.18356 14.24081 21614 ft 400 kts 264°
2026-05-05 17:10 50.18155 14.19739 22220 ft 403 kts 263°
2026-05-05 17:11 50.17935 14.15372 22792 ft 406 kts 263°
2026-05-05 17:11 50.17695 14.11021 23354 ft 409 kts 262°
2026-05-05 17:11 50.17440 14.06591 23833 ft 412 kts 262°
2026-05-05 17:11 50.17176 14.02123 24284 ft 414 kts 262°
2026-05-05 17:12 50.16909 13.97628 24749 ft 417 kts 262°
2026-05-05 17:12 50.16639 13.93110 25210 ft 419 kts 262°
2026-05-05 17:12 50.16368 13.88573 25670 ft 421 kts 262°
2026-05-05 17:12 50.16094 13.84005 26108 ft 424 kts 262°
2026-05-05 17:13 50.15817 13.79407 26534 ft 427 kts 262°
2026-05-05 17:13 50.15536 13.74776 26955 ft 429 kts 262°
2026-05-05 17:13 50.15252 13.70121 27369 ft 432 kts 262°
2026-05-05 17:13 50.14965 13.65442 27783 ft 434 kts 262°
2026-05-05 17:14 50.14674 13.60748 28181 ft 436 kts 262°
2026-05-05 17:14 50.14383 13.56087 28564 ft 438 kts 262°
2026-05-05 17:14 50.14084 13.51340 28950 ft 441 kts 262°
2026-05-05 17:14 50.13781 13.46571 29328 ft 443 kts 262°
2026-05-05 17:15 50.13474 13.41771 29694 ft 445 kts 262°
2026-05-05 17:15 50.13164 13.36956 30019 ft 447 kts 262°
2026-05-05 17:15 50.12853 13.32129 30313 ft 449 kts 262°
2026-05-05 17:15 50.12538 13.27283 30635 ft 450 kts 262°
2026-05-05 17:16 50.12221 13.22414 30927 ft 452 kts 262°
2026-05-05 17:16 50.11900 13.17530 31173 ft 454 kts 262°
2026-05-05 17:16 50.11576 13.12641 31565 ft 453 kts 262°
2026-05-05 17:16 50.11255 13.07765 32056 ft 451 kts 262°
2026-05-05 17:17 50.10938 13.02917 32519 ft 448 kts 262°
2026-05-05 17:17 50.10621 12.98099 32942 ft 446 kts 262°
2026-05-05 17:17 50.10299 12.93294 33382 ft 444 kts 262°
2026-05-05 17:17 50.09978 12.88566 33722 ft 445 kts 262°
2026-05-05 17:18 50.09326 12.79055 33773 ft 438 kts 262°
2026-05-05 17:18 50.08668 12.69634 33765 ft 437 kts 262°
2026-05-05 17:19 50.08001 12.60227 33759 ft 437 kts 262°
2026-05-05 17:19 50.07328 12.50814 33751 ft 437 kts 262°
2026-05-05 17:20 50.06692 12.41404 33746 ft 438 kts 264°
2026-05-05 17:20 50.06232 12.36739 33740 ft 436 kts 251°
2026-05-05 17:20 50.04996 12.32468 33741 ft 432 kts 236°
2026-05-05 17:21 50.01015 12.25488 33742 ft 431 kts 225°
2026-05-05 17:22 49.94589 12.15596 33742 ft 437 kts 224°
2026-05-05 17:22 49.90280 12.08982 33763 ft 438 kts 224°
2026-05-05 17:23 49.85949 12.02342 33773 ft 438 kts 224°
2026-05-05 17:23 49.81611 11.95704 33782 ft 438 kts 224°
2026-05-05 17:24 49.77292 11.89053 33786 ft 437 kts 224°
2026-05-05 17:24 49.73336 11.81924 33786 ft 438 kts 236°
2026-05-05 17:25 49.70818 11.73328 33778 ft 445 kts 253°
2026-05-05 17:25 49.69978 11.63804 33781 ft 452 kts 265°
2026-05-05 17:26 49.69690 11.54161 33781 ft 452 kts 263°
2026-05-05 17:26 49.68856 11.44585 33782 ft 449 kts 256°
2026-05-05 17:27 49.67282 11.35275 33784 ft 448 kts 253°
2026-05-05 17:27 49.66437 11.25724 33786 ft 454 kts 266°
2026-05-05 17:28 49.66365 11.15951 33795 ft 455 kts 263°
2026-05-05 17:28 49.65468 11.08026 33809 ft 448 kts 249°
2026-05-05 17:28 49.64265 11.03613 33800 ft 443 kts 238°
2026-05-05 17:29 49.62613 10.99632 33806 ft 440 kts 230°
2026-05-05 17:29 49.58582 10.92590 33803 ft 437 kts 223°
2026-05-05 17:30 49.54263 10.86008 33803 ft 437 kts 222°
2026-05-05 17:30 49.49953 10.79407 33827 ft 437 kts 223°
2026-05-05 17:31 49.45683 10.72731 33838 ft 438 kts 223°
2026-05-05 17:31 49.41442 10.66067 33832 ft 440 kts 223°
2026-05-05 17:32 49.37200 10.59271 33832 ft 440 kts 224°
2026-05-05 17:32 49.32988 10.52448 33833 ft 440 kts 223°
2026-05-05 17:33 49.28664 10.45789 33835 ft 440 kts 222°
2026-05-05 17:33 49.24305 10.39208 33839 ft 440 kts 222°
2026-05-05 17:34 49.19977 10.32589 33856 ft 440 kts 223°
2026-05-05 17:34 49.15680 10.25917 33840 ft 440 kts 223°
2026-05-05 17:35 49.11683 10.18800 33854 ft 443 kts 228°
2026-05-05 17:35 49.07815 10.11502 33840 ft 446 kts 229°
2026-05-05 17:36 49.03933 10.04132 33832 ft 444 kts 229°
2026-05-05 17:36 49.00061 9.96805 33829 ft 444 kts 229°
2026-05-05 17:37 48.96182 9.89505 33828 ft 444 kts 229°
2026-05-05 17:37 48.92290 9.82207 33825 ft 443 kts 229°
2026-05-05 17:37 48.90345 9.78568 33541 ft 446 kts 229°
2026-05-05 17:38 48.88376 9.74892 32981 ft 451 kts 229°
2026-05-05 17:38 48.86396 9.71189 32258 ft 453 kts 229°
2026-05-05 17:38 48.84408 9.67480 31527 ft 453 kts 229°
2026-05-05 17:38 48.82413 9.63769 30842 ft 454 kts 229°
2026-05-05 17:39 48.80413 9.60056 30151 ft 454 kts 229°
2026-05-05 17:39 48.78418 9.56358 29392 ft 453 kts 229°
2026-05-05 17:39 48.76423 9.52664 28605 ft 452 kts 229°
2026-05-05 17:39 48.74364 9.49090 27907 ft 448 kts 224°
2026-05-05 17:40 48.72094 9.45910 27267 ft 442 kts 219°
2026-05-05 17:40 48.69776 9.42953 26679 ft 440 kts 218°
2026-05-05 17:40 48.67418 9.40006 26085 ft 438 kts 218°
2026-05-05 17:40 48.65071 9.37094 25493 ft 435 kts 218°
2026-05-05 17:41 48.62741 9.34212 24957 ft 431 kts 218°
2026-05-05 17:41 48.60418 9.31347 24394 ft 433 kts 218°
2026-05-05 17:41 48.58075 9.28464 23848 ft 436 kts 218°
2026-05-05 17:41 48.55723 9.25573 23299 ft 435 kts 218°
2026-05-05 17:42 48.53389 9.22709 22650 ft 431 kts 218°
2026-05-05 17:42 48.51077 9.19874 22048 ft 426 kts 218°
2026-05-05 17:42 48.48790 9.17073 21471 ft 422 kts 218°
2026-05-05 17:42 48.46523 9.14301 20875 ft 417 kts 218°
2026-05-05 17:43 48.44276 9.11557 20342 ft 413 kts 219°
2026-05-05 17:43 48.42055 9.08847 19795 ft 410 kts 219°
2026-05-05 17:43 48.39851 9.06160 19284 ft 406 kts 219°
2026-05-05 17:43 48.37663 9.03497 18775 ft 403 kts 219°
2026-05-05 17:44 48.35488 9.00853 18278 ft 400 kts 219°
2026-05-05 17:44 48.33333 8.98238 17918 ft 396 kts 219°
2026-05-05 17:44 48.31192 8.95640 17821 ft 395 kts 219°
2026-05-05 17:44 48.29052 8.93047 17834 ft 394 kts 220°
2026-05-05 17:45 48.26917 8.90461 17838 ft 393 kts 220°
2026-05-05 17:45 48.24791 8.87891 17838 ft 393 kts 220°
2026-05-05 17:45 48.22660 8.85316 17836 ft 394 kts 220°
2026-05-05 17:45 48.20533 8.82750 17843 ft 387 kts 219°
2026-05-05 17:46 48.18505 8.80307 17850 ft 372 kts 220°
2026-05-05 17:46 48.16501 8.77892 17846 ft 368 kts 220°
2026-05-05 17:46 48.14500 8.75483 17847 ft 369 kts 220°
2026-05-05 17:46 48.12494 8.73072 17846 ft 368 kts 220°
2026-05-05 17:47 48.10496 8.70672 17836 ft 368 kts 220°
2026-05-05 17:47 48.08502 8.68281 17842 ft 367 kts 220°
2026-05-05 17:47 48.06548 8.65941 17855 ft 351 kts 220°
2026-05-05 17:47 48.04672 8.63697 17857 ft 342 kts 220°
2026-05-05 17:48 48.02816 8.61478 17852 ft 342 kts 220°
2026-05-05 17:48 48.00958 8.59257 17799 ft 341 kts 220°
2026-05-05 17:48 47.99107 8.57047 17615 ft 340 kts 220°
2026-05-05 17:48 47.97235 8.54880 17398 ft 339 kts 216°
2026-05-05 17:49 47.95174 8.53195 17143 ft 340 kts 203°
2026-05-05 17:49 47.92877 8.52353 16893 ft 342 kts 188°
2026-05-05 17:49 47.90490 8.52534 16670 ft 346 kts 174°
2026-05-05 17:49 47.88135 8.53212 16441 ft 343 kts 172°
2026-05-05 17:50 47.85794 8.53955 16222 ft 344 kts 171°
2026-05-05 17:50 47.83457 8.54705 15998 ft 342 kts 172°
2026-05-05 17:50 47.81132 8.55436 15780 ft 341 kts 172°
2026-05-05 17:50 47.78842 8.56155 15530 ft 340 kts 172°
2026-05-05 17:51 47.76525 8.56882 15324 ft 339 kts 172°
2026-05-05 17:51 47.74227 8.57599 15085 ft 337 kts 172°
2026-05-05 17:51 47.71927 8.58318 14859 ft 336 kts 172°
2026-05-05 17:51 47.69654 8.59145 14517 ft 339 kts 166°
2026-05-05 17:52 47.67540 8.60709 14116 ft 344 kts 149°
2026-05-05 17:52 47.65797 8.63174 13710 ft 348 kts 135°
2026-05-05 17:52 47.64266 8.65955 13269 ft 348 kts 133°
2026-05-05 17:52 47.62765 8.68754 12831 ft 346 kts 133°
2026-05-05 17:53 47.61269 8.71528 12413 ft 343 kts 133°
2026-05-05 17:53 47.59782 8.74269 12138 ft 337 kts 134°
2026-05-05 17:53 47.58329 8.76938 11871 ft 330 kts 134°
2026-05-05 17:53 47.56894 8.79578 11518 ft 327 kts 133°
2026-05-05 17:54 47.55725 8.82478 11088 ft 332 kts 114°
2026-05-05 17:54 47.55213 8.85811 10724 ft 333 kts 99°
2026-05-05 17:54 47.54968 8.89185 10556 ft 324 kts 98°
2026-05-05 17:54 47.54751 8.92413 10426 ft 315 kts 98°
2026-05-05 17:55 47.54529 8.95612 10220 ft 310 kts 99°
2026-05-05 17:55 47.54304 8.98773 9920 ft 306 kts 99°
2026-05-05 17:55 47.53921 9.01835 9331 ft 301 kts 114°
2026-05-05 17:55 47.52805 9.04371 8994 ft 291 kts 142°
2026-05-05 17:56 47.51097 9.05808 8677 ft 279 kts 169°
2026-05-05 17:56 47.49205 9.05969 8342 ft 270 kts 192°
2026-05-05 17:56 47.47349 9.05543 7963 ft 270 kts 191°
2026-05-05 17:56 47.45515 9.05013 7625 ft 267 kts 201°
2026-05-05 17:57 47.43918 9.03707 7275 ft 263 kts 223°
2026-05-05 17:57 47.42843 9.01557 6997 ft 263 kts 246°
2026-05-05 17:57 47.42465 8.98938 6639 ft 264 kts 270°
2026-05-05 17:57 47.42702 8.96253 6346 ft 262 kts 278°
2026-05-05 17:58 47.43002 8.93684 6162 ft 245 kts 278°
2026-05-05 17:58 47.43230 8.91285 5963 ft 227 kts 275°
2026-05-05 17:58 47.43388 8.89046 5752 ft 212 kts 275°
2026-05-05 17:58 47.43532 8.86972 5671 ft 193 kts 275°
2026-05-05 17:59 47.43663 8.85087 5567 ft 177 kts 274°
2026-05-05 17:59 47.43783 8.83346 5379 ft 164 kts 274°
2026-05-05 17:59 47.43898 8.81725 5133 ft 158 kts 275°
2026-05-05 17:59 47.44012 8.80143 4882 ft 152 kts 274°
2026-05-05 18:00 47.44121 8.78626 4651 ft 145 kts 274°
2026-05-05 18:00 47.44223 8.77183 4424 ft 137 kts 275°
2026-05-05 18:00 47.44320 8.75841 4237 ft 126 kts 274°
2026-05-05 18:00 47.44410 8.74572 4049 ft 123 kts 274°
2026-05-05 18:01 47.44500 8.73311 3888 ft 124 kts 274°
2026-05-05 18:01 47.44591 8.72033 3693 ft 124 kts 274°
2026-05-05 18:01 47.44683 8.70755 3523 ft 125 kts 274°
2026-05-05 18:01 47.44774 8.69476 3327 ft 125 kts 274°
2026-05-05 18:02 47.44865 8.68197 3160 ft 126 kts 274°
2026-05-05 18:02 47.44957 8.66909 2967 ft 127 kts 273°
2026-05-05 18:02 47.45049 8.65618 2776 ft 128 kts 274°
2026-05-05 18:02 47.45142 8.64299 2581 ft 130 kts 273°
2026-05-05 18:03 47.45232 8.62975 2399 ft 131 kts 274°
2026-05-05 18:03 47.45318 8.61615 2161 ft 134 kts 274°
2026-05-05 18:03 47.45417 8.60243 1945 ft 134 kts 276°
2026-05-05 18:03 47.45527 8.58888 1744 ft 133 kts 274°
2026-05-05 18:04 47.45624 8.57533 1529 ft 133 kts 273°
2026-05-05 18:04 47.45716 8.56219 1423 ft 109 kts 277°
2026-05-05 18:04 47.45768 8.55543 1410 ft 23 kts 275°
2026-05-05 18:04 47.45781 8.55347 1410 ft 11 kts 274°
2026-05-05 18:05 47.45741 8.55284 1408 ft 8 kts 179°
2026-05-05 18:05 47.45707 8.55297 1406 ft 0 kts 163°
2026-05-05 18:06 47.45702 8.55300 1407 ft 4 kts 163°
2026-05-05 18:06 47.45689 8.55306 1412 ft 6 kts 163°
2026-05-05 18:06 47.45607 8.55350 1411 ft 9 kts 155°
2026-05-05 18:06 47.45532 8.55400 1413 ft 12 kts 156°
2026-05-05 18:07 47.45461 8.55449 1417 ft 11 kts 154°
2026-05-05 18:07 47.45392 8.55497 1418 ft 10 kts 154°
2026-05-05 18:07 47.45328 8.55542 1414 ft 11 kts 155°
2026-05-05 18:07 47.45274 8.55613 1419 ft 10 kts 107°
2026-05-05 18:08 47.45265 8.55727 1411 ft 12 kts 95°
2026-05-05 18:08 47.45256 8.55855 1418 ft 13 kts 96°
2026-05-05 18:08 47.45248 8.55974 1412 ft 6 kts 97°
2026-05-05 18:08 47.45242 8.56000 1411 ft 1 kts 124°
2026-05-05 18:09 47.45227 8.56001 1419 ft 4 kts 178°
2026-05-05 18:09 47.45191 8.55996 1414 ft 5 kts 185°
2026-05-05 18:09 47.45170 8.55993 1412 ft 2 kts 186°
2026-05-05 18:09 47.45160 8.55991 1413 ft 1 kts 186°